Brightest
NORAD ID: 20453
Int'l Code: 1990-008B
Perigee: 432.0 km
Apogee: 917.4 km
Inclination: 35.6 °
Period: 98.1 minutes
Semi major axis: 7045 km
Launch date: January 24, 1990
Source: United States (US)
Note: This is a ROCKET BODY
Two Line Element Set (TLE):
1 20453U 90008B 13142.12309905 .00008324 00000-0 57142-3 0 6830
2 20453 035.6283 247.5648 0344471 153.0093 208.8989 14.67955753228191
Source:
NASA's NSSDC Master Catalog entry for DELTA 2 R/B(1)